Wind_Speed
26 26 26 25 24 24 24 23 23 21 20 20 19 18 16 14 13 12 10 8 7 8 8 8 8 8 8 7 7 6 6 5 8 10 11 12 13 13 14 15 16 18 19 20
28 27 28 28 26 26 26 26 25 24 23 22 21 19 17 15 14 13 12 11 10 10 10 10 10 10 9 7 7 7 6 7 7 9 10 10 11 13 15 16 16 17 18 19
30 29 28 29 29 28 29 29 27 26 25 23 22 20 18 18 17 16 16 14 13 12 12 12 12 12 10 9 8 8 8 7 7 8 11 12 12 12 14 16 17 18 19 20
32 31 31 29 30 30 30 30 28 27 25 25 24 21 20 19 19 18 17 16 15 14 14 14 13 13 13 11 10 10 10 10 9 8 10 12 13 14 14 15 16 18 19 20
33 32 31 30 31 32 32 30 28 28 27 25 24 23 22 22 22 20 19 19 18 17 16 16 15 14 14 14 13 12 13 12 12 12 11 12 13 15 16 16 17 18 19 20
33 32 32 32 32 33 33 32 30 28 27 27 26 25 24 24 23 22 22 21 20 19 19 18 17 16 16 16 15 14 14 14 14 14 14 15 15 15 16 17 17 18 19 20
32 32 32 32 32 31 32 30 29 28 28 28 27 27 26 25 24 23 23 22 22 22 21 20 19 19 18 17 15 16 16 16 16 16 16 17 17 17 17 18 19 20 20 21
32 32 32 30 31 31 31 30 29 28 27 28 28 27 26 25 25 25 24 23 23 22 22 21 21 21 20 19 18 17 17 17 17 17 18 18 18 19 19 20 20 21 23 23
31 31 30 29 31 30 29 30 28 27 28 27 27 27 27 26 25 23 24 23 23 23 24 23 22 22 22 21 20 20 19 19 18 18 19 19 19 20 21 21 21 22 23 24
29 28 28 27 27 28 28 27 28 27 27 28 28 28 27 27 26 25 24 24 24 24 24 24 23 23 23 23 22 21 20 20 19 20 21 22 22 23 23 23 23 24 25 26
26 26 27 27 27 26 26 27 27 26 26 26 26 26 25 25 25 25 24 23 23 23 23 23 23 23 24 23 23 23 22 22 22 22 23 24 23 23 23 24 25 26 26 28
23 24 24 24 24 24 24 25 26 26 25 24 24 24 24 24 24 23 23 23 23 22 22 22 22 23 23 23 22 23 23 23 24 24 23 24 24 25 26 27 27 27 28 29
21 21 21 22 22 22 23 23 23 23 23 22 22 23 22 22 23 23 23 22 22 21 21 21 21 22 22 22 22 22 23 23 23 24 25 26 26 27 28 29 30 30 29 30
19 19 19 19 19 19 20 20 20 20 20 20 21 21 21 20 21 21 21 21 21 20 20 20 21 22 22 23 23 22 23 24 24 25 26 27 27 28 29 30 30 30 30 30
17 18 18 19 18 18 18 18 18 18 19 19 19 19 19 19 19 19 19 19 20 20 20 21 21 22 22 22 22 23 24 24 24 25 25 26 26 27 28 28 28 29 29 31
15 16 17 17 16 16 16 16 16 16 16 17 17 17 17 17 17 17 17 17 18 18 18 19 20 20 20 20 21 22 22 23 24 24 24 24 24 24 25 26 27 28 30 32
14 14 14 14 14 14 14 13 14 13 13 13 13 14 14 14 14 14 14 15 15 15 15 16 17 17 18 18 19 20 20 20 20 20 21 21 22 23 24 26 28 30 32 34
13 13 13 13 13 13 12 11 11 10 10 10 11 11 11 11 12 12 12 11 11 12 13 14 15 16 16 16 16 16 17 18 19 19 21 22 24 26 27 29 30 32 34 36
12 12 12 11 10 11 11 10 9 9 9 9 9 9 9 10 10 11 10 10 11 11 12 12 13 14 14 14 15 16 16 18 19 21 23 25 26 28 29 31 33 35 37 39
11 11 11 11 10 10 10 10 10 10 10 9 9 8 8 8 9 9 10 10 11 12 13 14 14 15 16 16 16 17 18 20 21 23 25 27 28 30 32 34 35 37 39 40
11 11 11 11 11 11 10 10 9 10 10 10 9 9 9 9 9 10 10 11 11 13 14 15 16 16 16 17 18 20 21 23 24 26 28 30 32 33 35 37 38 39 40 42
12 11 11 11 11 10 10 10 9 9 9 9 9 9 9 9 9 10 10 10 11 12 13 14 14 16 17 19 21 22 24 26 28 29 31 32 34 35 36 38 38 39 39 40
12 11 11 10 10 10 9 9 8 8 8 9 9 8 9 8 8 9 9 10 11 13 14 15 16 18 20 22 24 25 27 28 30 31 32 33 34 35 36 36 36 36 36 36
12 12 11 10 10 9 8 7 8 8 8 8 8 8 8 9 10 11 11 12 13 15 16 18 19 21 22 24 26 27 28 29 30 31 32 33 33 34 33 33 33 33 33 32
12 12 11 10 10 9 8 8 8 9 8 8 8 9 10 10 11 12 13 14 16 17 19 20 22 23 24 25 27 27 28 29 30 30 31 31 31 31 31 30 30 30 30 30
12 11 11 11 10 9 9 9 8 9 9 10 11 12 13 14 14 16 17 19 20 21 22 22 23 24 25 26 26 27 28 28 28 28 28 28 28 27 27 27 27 27 26 26
12 11 11 11 11 10 10 10 10 11 11 13 14 15 16 17 18 19 20 22 22 23 23 24 24 24 25 25 26 26 26 26 26 26 26 25 25 25 25 25 24 23 23 23
Wind_Direction
228 228 231 233 233 234 239 246 252 256 258 262 267 272 279 279 278 279 285 285 287 298 299 306 307 304 303 303 300 296 281 253 235 229 225 225 226 226 225 224 224 224 224 225
230 231 232 233 235 237 238 242 248 252 254 257 264 272 278 281 282 279 281 283 285 284 288 294 296 294 292 290 291 296 287 264 253 238 231 232 232 230 230 228 227 228 229 231
232 235 235 236 238 239 241 242 247 250 252 255 257 266 273 278 280 278 275 276 278 279 281 284 286 282 278 276 278 282 284 281 267 250 240 242 245 242 240 235 235 235 235 237
233 234 236 237 239 239 242 244 247 249 251 251 255 263 270 274 274 277 273 271 271 270 273 277 280 278 270 270 271 271 269 269 268 263 255 251 250 248 246 243 242 242 244 246
235 235 237 239 239 239 242 246 249 250 250 252 256 263 268 271 272 272 272 269 268 265 270 270 272 272 268 267 267 265 264 263 262 260 259 258 257 252 250 250 250 251 251 253
234 236 238 239 240 242 244 247 247 249 250 254 259 265 268 269 269 268 269 266 265 264 266 267 265 267 265 262 259 260 261 261 261 262 263 263 262 259 258 258 257 256 257 259
235 238 239 239 240 242 244 246 248 251 253 257 261 264 267 266 267 267 266 265 265 263 263 262 263 265 265 259 259 260 263 261 261 262 264 264 264 266 266 267 263 261 263 265
235 238 239 239 241 242 245 248 251 253 256 259 261 265 267 267 266 265 264 264 264 263 261 260 260 261 260 259 261 262 263 262 262 263 265 265 267 270 273 274 269 267 269 269
235 238 240 241 242 244 245 248 252 256 257 260 263 266 268 268 264 260 261 263 263 261 259 258 257 258 258 259 262 262 264 263 262 263 266 268 271 272 274 278 278 275 274 272
238 240 238 238 241 243 245 250 253 257 259 261 262 263 265 265 262 261 260 260 261 259 256 256 257 257 256 257 259 263 264 263 265 268 270 274 276 276 277 280 280 279 276 274
237 238 237 238 242 247 250 252 253 255 258 261 262 263 263 263 261 261 260 260 261 259 254 253 254 256 258 258 259 260 262 265 269 274 279 280 280 282 283 284 283 280 280 280
236 234 234 238 243 245 248 250 252 256 259 262 261 261 261 261 260 260 261 260 259 258 255 256 257 258 259 260 261 263 265 270 273 277 279 280 282 283 284 285 283 281 279 280
236 235 237 239 242 246 249 251 253 255 257 260 259 259 261 259 258 258 259 256 257 256 256 256 257 259 260 261 264 267 268 270 273 275 278 280 282 284 284 284 283 282 282 282
235 236 238 241 245 248 251 252 255 256 256 259 259 257 259 259 257 256 257 255 253 252 256 257 258 260 261 263 266 269 271 272 275 278 279 281 282 284 284 284 283 283 282 282
237 239 242 248 251 251 252 253 254 254 255 257 255 254 256 257 257 254 254 254 253 253 255 256 258 261 263 265 267 270 272 273 275 278 281 283 284 284 284 284 284 283 284 285
240 244 245 245 246 247 248 248 248 250 252 251 249 249 252 254 256 254 251 251 254 255 256 257 258 261 264 268 271 274 274 275 276 277 280 282 283 284 284 284 285 286 288 289
236 238 239 238 239 243 244 244 244 244 244 244 242 242 246 248 248 249 251 252 252 254 256 258 260 263 265 269 272 273 275 275 277 279 280 283 285 286 288 289 290 291 292 292
231 232 229 227 227 229 231 234 237 239 238 236 235 236 237 240 244 247 247 248 251 252 254 258 262 264 266 270 272 275 278 278 281 283 284 287 289 291 292 292 293 293 294 296
220 222 218 214 217 220 220 222 226 228 229 229 231 233 236 240 242 241 239 244 248 250 255 262 267 270 274 279 280 281 284 287 289 290 292 293 293 294 294 294 295 296 297 297
214 216 216 216 218 215 213 216 220 223 225 228 230 232 234 239 243 241 243 248 253 260 266 270 272 274 277 279 282 285 288 290 292 293 294 294 294 294 295 295 296 297 297 298
210 209 209 209 209 207 209 213 216 218 222 226 232 236 239 246 249 252 254 257 263 267 270 272 275 278 280 283 285 287 289 291 293 294 295 294 295 296 296 297 297 298 298 299
203 201 202 204 206 208 210 211 216 220 225 233 241 244 249 253 257 258 258 263 267 271 274 277 280 283 285 287 289 292 294 295 296 296 296 296 297 297 297 297 298 299 300 301
201 199 198 200 206 211 210 213 220 226 231 235 238 245 249 255 260 264 270 276 279 282 284 286 287 288 290 292 294 295 297 297 297 297 297 297 298 298 299 299 300 301 302 304
193 191 194 200 203 204 208 216 224 232 236 240 248 254 258 264 269 274 278 282 285 287 289 291 291 292 293 294 296 296 297 298 298 299 299 300 300 300 301 302 302 303 305 306
189 190 198 208 211 217 225 234 241 242 248 254 257 261 268 273 276 281 284 286 289 291 292 293 294 295 296 297 298 298 300 301 301 302 302 302 302 303 303 304 305 306 307 309
195 200 206 212 219 226 233 239 245 252 254 258 264 270 275 279 282 285 287 288 289 290 292 293 295 296 297 298 299 300 302 302 302 303 304 305 306 306 307 308 309 309 310 312
202 208 214 222 229 234 240 247 253 258 264 268 272 277 280 283 285 288 290 290 291 293 293 294 295 296 297 298 299 301 302 303 304 305 306 307 308 309 310 311 312 313 314 316
Height
5804 5807 5809 5811 5813 5815 5817 5818 5819 5821 5822 5823 5824 5824 5824 5824 5825 5826 5827 5827 5827 5827 5827 5827 5826 5825 5824 5823 5823 5822 5821 5820 5821 5821 5822 5823 5824 5826 5827 5828 5830 5831 5832 5834
5799 5802 5804 5806 5808 5810 5812 5813 5814 5815 5817 5818 5819 5820 5821 5821 5822 5823 5824 5825 5825 5825 5825 5824 5824 5823 5822 5822 5822 5821 5820 5820 5820 5820 5821 5822 5822 5823 5824 5825 5826 5828 5829 5831
5793 5796 5798 5801 5803 5805 5806 5807 5809 5810 5813 5813 5815 5816 5817 5818 5819 5819 5820 5821 5821 5821 5821 5821 5821 5820 5820 5819 5820 5820 5819 5819 5818 5818 5818 5819 5820 5820 5821 5822 5823 5825 5826 5827
5787 5790 5792 5797 5797 5799 5800 5801 5803 5805 5807 5808 5811 5812 5813 5813 5813 5813 5814 5816 5817 5817 5817 5818 5817 5817 5816 5816 5817 5817 5817 5817 5816 5816 5816 5817 5817 5817 5818 5819 5820 5821 5822 5822
5780 5783 5785 5789 5790 5792 5794 5796 5798 5799 5801 5803 5805 5807 5808 5808 5808 5808 5809 5810 5810 5811 5812 5812 5813 5813 5813 5813 5814 5814 5814 5814 5814 5814 5814 5814 5814 5814 5815 5815 5816 5816 5817 5817
5773 5776 5779 5782 5784 5785 5789 5790 5793 5794 5795 5797 5799 5801 5803 5803 5803 5803 5803 5804 5805 5807 5807 5808 5808 5808 5808 5809 5809 5810 5810 5811 5811 5811 5811 5811 5811 5811 5811 5811 5811 5812 5812 5812
5765 5768 5771 5775 5777 5779 5783 5785 5787 5788 5790 5792 5793 5795 5796 5796 5797 5797 5798 5798 5799 5801 5802 5802 5803 5804 5803 5803 5804 5805 5806 5806 5806 5806 5806 5806 5806 5806 5806 5806 5806 5806 5806 5806
5758 5761 5766 5768 5771 5773 5775 5778 5780 5782 5784 5785 5786 5787 5787 5789 5790 5790 5791 5792 5793 5794 5795 5796 5797 5798 5798 5798 5799 5800 5800 5801 5801 5801 5801 5801 5801 5801 5801 5801 5800 5800 5800 5800
5752 5756 5759 5762 5764 5766 5768 5771 5773 5775 5776 5778 5779 5780 5781 5781 5782 5783 5784 5785 5786 5787 5788 5789 5790 5792 5793 5793 5794 5794 5794 5795 5796 5796 5796 5796 5795 5795 5795 5794 5794 5794 5793 5793
5746 5749 5752 5755 5757 5759 5761 5764 5766 5768 5769 5771 5772 5773 5774 5774 5775 5776 5777 5778 5779 5780 5781 5782 5783 5784 5786 5787 5788 5788 5788 5789 5789 5790 5790 5790 5790 5789 5788 5787 5787 5786 5785 5785
5739 5742 5745 5748 5750 5752 5755 5757 5759 5761 5762 5763 5764 5765 5766 5767 5768 5768 5769 5771 5772 5773 5773 5775 5776 5777 5779 5780 5781 5782 5783 5783 5783 5784 5784 5783 5782 5782 5781 5781 5780 5779 5778 5777
5734 5737 5739 5742 5744 5746 5748 5750 5752 5753 5755 5756 5757 5758 5759 5759 5760 5762 5763 5764 5765 5766 5767 5768 5769 5771 5772 5773 5774 5775 5776 5777 5777 5777 5777 5776 5776 5775 5774 5773 5772 5771 5769 5768
5728 5731 5733 5735 5737 5739 5741 5743 5745 5746 5748 5749 5750 5751 5752 5752 5754 5755 5756 5757 5758 5760 5761 5763 5764 5765 5766 5767 5768 5769 5769 5770 5770 5770 5769 5769 5768 5767 5766 5765 5763 5762 5760 5759
5723 5725 5728 5730 5732 5734 5735 5737 5738 5739 5741 5742 5744 5745 5746 5747 5748 5749 5750 5752 5753 5754 5755 5757 5758 5759 5760 5761 5762 5762 5763 5762 5762 5762 5762 5761 5760 5758 5757 5756 5755 5752 5751 5749
5718 5720 5723 5725 5726 5728 5730 5731 5732 5734 5735 5736 5738 5739 5740 5741 5742 5744 5745 5746 5748 5749 5750 5751 5752 5753 5754 5754 5755 5755 5756 5755 5755 5754 5754 5753 5752 5750 5748 5747 5745 5744 5742 5740
5713 5715 5717 5719 5721 5723 5725 5726 5728 5729 5730 5731 5732 5734 5735 5736 5738 5739 5740 5741 5742 5743 5744 5746 5746 5747 5748 5748 5749 5749 5748 5748 5748 5747 5746 5745 5744 5742 5740 5739 5737 5735 5732 5730
5708 5710 5712 5715 5717 5719 5721 5722 5724 5725 5726 5727 5728 5730 5731 5732 5734 5735 5736 5737 5738 5739 5740 5741 5741 5742 5742 5743 5743 5742 5742 5741 5741 5740 5739 5738 5736 5734 5732 5730 5728 5726 5723 5719
5705 5707 5709 5712 5714 5716 5717 5719 5720 5721 5723 5724 5726 5727 5728 5729 5730 5731 5732 5733 5734 5735 5736 5737 5737 5737 5737 5737 5737 5736 5735 5735 5734 5733 5731 5730 5728 5726 5724 5721 5718 5715 5712 5708
5702 5704 5707 5709 5711 5713 5715 5716 5718 5719 5720 5722 5723 5724 5725 5726 5727 5728 5729 5730 5731 5732 5732 5732 5732 5732 5732 5731 5731 5730 5730 5729 5727 5726 5724 5722 5720 5717 5714 5711 5708 5704 5701 5697
5700 5702 5704 5706 5709 5710 5712 5714 5715 5717 5718 5719 5721 5722 5723 5724 5724 5725 5726 5727 5727 5728 5728 5728 5728 5728 5727 5727 5726 5725 5724 5722 5721 5718 5716 5714 5711 5708 5705 5702 5698 5694 5689 5685
5698 5700 5702 5704 5706 5708 5710 5711 5713 5714 5716 5717 5718 5719 5720 5721 5722 5722 5723 5723 5723 5724 5724 5723 5723 5722 5722 5721 5720 5719 5717 5715 5713 5711 5708 5705 5702 5698 5695 5691 5687 5682 5677 5672
5695 5697 5700 5702 5704 5706 5707 5709 5711 5712 5713 5715 5716 5716 5717 5718 5718 5719 5719 5719 5719 5719 5719 5718 5718 5717 5716 5715 5713 5712 5710 5707 5705 5702 5699 5695 5692 5688 5684 5679 5675 5670 5665 5660
5693 5695 5698 5700 5702 5704 5705 5707 5709 5710 5711 5712 5713 5714 5714 5715 5715 5715 5715 5715 5715 5714 5714 5713 5712 5711 5710 5708 5706 5704 5701 5699 5696 5692 5689 5685 5681 5677 5673 5669 5664 5660 5655 5650
5692 5694 5696 5698 5700 5702 5704 5705 5707 5708 5709 5709 5710 5711 5711 5712 5712 5712 5711 5711 5710 5710 5708 5707 5706 5704 5702 5700 5698 5695 5692 5689 5686 5682 5679 5675 5671 5667 5663 5658 5654 5650 5646 5641
5690 5693 5695 5697 5699 5700 5702 5703 5704 5705 5706 5707 5707 5707 5708 5708 5708 5707 5707 5706 5705 5704 5702 5701 5699 5697 5695 5692 5690 5687 5684 5680 5677 5673 5669 5665 5661 5658 5654 5650 5645 5641 5637 5633
5690 5692 5694 5696 5697 5698 5700 5701 5701 5702 5703 5703 5704 5704 5703 5703 5703 5702 5701 5700 5699 5697 5695 5694 5691 5689 5687 5684 5681 5678 5675 5672 5668 5665 5661 5657 5653 5650 5646 5642 5638 5634 5629 5625
5688 5690 5692 5693 5695 5696 5697 5698 5698 5699 5699 5699 5699 5699 5698 5697 5697 5696 5694 5693 5691 5690 5688 5686 5684 5681 5679 5676 5673 5670 5667 5664 5660 5657 5653 5650 5646 5642 5638 5635 5631 5627 5623 5619